Simultaneous Nadir Overpasses (SNOs) Predictions

Prediction of SNOs between GOES-15 and NPP Satellite Orbit:

Table of predicted SNOs for the next 14.0 days since TLE Epoch: 3/9/2024
Index Date Time (GOES-15) GOES-15 Lat,Lon NPP Lat,Lon Distance(km) Time Diff (sec)
1 03/09/2024 09:05:23 -0.06, 61.28 0.83, 65.21 448.69 80
2 03/10/2024 21:27:13 0.06, 61.19 0.32, 59.92 144.09 80
3 03/11/2024 21:05:50 0.06, 61.19 -0.69, 64.45 372.07 80
4 03/13/2024 09:30:27 -0.06, 61.26 -0.54, 59.15 240.91 80
5 03/14/2024 09:09:04 -0.06, 61.26 0.47, 63.67 275.03 80
6 03/15/2024 21:33:33 0.07, 61.18 0.72, 58.39 318.41 80
7 03/16/2024 21:12:10 0.07, 61.18 -0.29, 62.92 197.24 80
8 03/18/2024 09:36:48 -0.08, 61.26 -0.88, 57.60 416.63 80
9 03/19/2024 09:15:23 -0.08, 61.26 0.08, 62.14 98.94 80
10 03/20/2024 21:37:14 0.09, 61.19 1.04, 56.85 494.94 80
11 03/21/2024 21:21:09 0.09, 61.20 0.08, 61.38 20.81 80
